STARLINK-3818, 52340

Orbit data source: Space-Track

STARLINK-3818, 52340 is a payload satellite owned by SpaceX/Seattle (US) in LEO that was launched on Fri, 29 Apr 2022 UTC via an FALCON 9 launch vehicle from the Air Force Eastern Test Range (AFETR). Payload-class satellites include a variety of spacecraft equipped with specific instruments for various scientific and technological missions. These include communications satellites like Starlink; space stations such as the ISS; scientific satellites like the Hubble; Earth observation satellites from companies like Planet Labs, Umbra, and HawkEye 360; GPS; miniature CubeSats for education and research; and military/defense satellites.

Loading next visibility...
Identifier
52340, 2022-045K
Orbit
LEO
Country
Flag of USUS
Related business
Manufacturer
SpaceX/Seattle
Mission
Operational Commercial Communications
Bus & Motor
STARLINK, Unknown motor
Mass
297 kg wet, ~275 kg dry
Launch date (UTC)
2022-04-29 (4 years ago)
Launch vehicle
FALCON 9
Launch site
Air Force Eastern Test Range (AFETR)
Object type
Payload
Rocket body
Debris
Shape & HBR
Box + 1 Pan, 10.1 m
Radar Cross Section
11.087 m², Large (>1 m²)

Expand to show TLE details & history
Last TLE update: 10 hours ago

TLE from 10 hours ago
0 STARLINK-3818
1 52340U 22045K   26119.85938313  .00000281  00000-0  35768-4 0  9990
2 52340  53.2179 329.4087 0001254  94.1345 265.9791 15.08838397223495
Epoch: 2026-04-29T20:37Z
TLE epoch observation values (Epoch: 2026-04-29T20:37:30.702Z)
Latitude
0.00002°
Longitude
162.21649°
Altitude
540.707 km
Speed
7.593 km/s
True Right ascension
21h 57m 38s
True Declination
0° 00' 00"
Sunlit
Object was in daylight at epoch
Visualization orbit readout
Latitude
Unknown
Longitude
Unknown
Altitude
Unknown
Speed
Unknown
Apparent Right ascension
Unknown
Apparent Declination
Unknown
Sunlit
N/A
Visualization observer readout
Local Sidereal Time
13:40:03
Azimuth
Unknown
Elevation
Unknown
Doppler factor
Unknown
Orbital elements
Apogee altitude
540.861 km
Perigee altitude
539.126 km
Semi-major axis
6,918.13 km
Eccentricity
0.00013
Inclination
53.2179°
RAAN
329.4087°
Arg. of periapsis
94.1345°
True anomaly
265.96477°
Mean anomaly
265.9791°
Eccentric anomaly
265.97193°
Mean motion
3.7719 °/min
Orbital period
95.44 mins
BSTAR
0.000035768
Loading maneuver chart data...
Computing Atmospheric mass density...
Loading historical data...
Loading historical data...
Loading historical data...
Loading historical data...
Loading historical data...
Loading historical data...
Loading historical data...

Documentation

Showing up to 5 results
|